Montauk, NY

9:10 PM EDT on September 20, 2017 (GMT -0400)
Montauk

Weather History for KMTP - March, 2013

Change the Weather History Date:

Sunday, March 10, 2013

  Actual Average (KHTO) Record (KHTO)
Temperature  
Mean Temperature 36 °F -  
Max Temperature 41 °F 43 °F 69 °F (2016)
Min Temperature 32 °F 28 °F 10 °F (1984)
Degree Days  
Heating Degree Days 28    
Moisture  
Dew Point 31 °F    
Average Humidity 78    
Maximum Humidity 92    
Minimum Humidity 65    
Precipitation  
Precipitation 0.00 in - - ()
Sea Level Pressure  
Sea Level Pressure 30.37 in    
Wind  
Wind Speed 6 mph (NE)    
Max Wind Speed 8 mph    
Max Gust Speed 16 mph    
Averages and records for this station are not official NWS values.
T = Trace of Precipitation, MM = Missing Value Source: NWS Daily Summary

Daily Weather History Graph

Daily Weather History Graph

Search for Another Location

Airport or City:

Trip Planner

Search our weather history database for the weather conditions in past years. The results will help you decide how hot, cold, wet, or windy it might be!

Date:

Astronomy

Mar. 10, 2013 Rise Set
Actual Time 7:07 AM EDT 6:49 PM EDT
Civil Twilight 6:39 AM EDT 7:16 PM EDT
Nautical Twilight 6:07 AM EDT 7:48 PM EDT
Astronomical Twilight 5:35 AM EDT 8:20 PM EDT
Moon 6:05 AM EDT (3/10) 5:53 PM EDT (3/10)
Length of Visible Light 12h 36m
Length of Day
11h 41m
Waning Crescent, 2% of the Moon is Illuminated
Mar 10
Waning Crescent
Mar 11
New
Mar 19
First Quarter
Mar 27
Full
Apr 3
Last Quarter

Hourly Weather History & Observations

Time (EDT) Temp. Windchill Dew Point Humidity Pressure Visibility Wind Dir Wind Speed Gust Speed Precip Events Conditions
12:54 AM 36.0 °F 30.3 °F 30.0 °F 79% 30.35 in - North 6.9 mph - N/A   Unknown
1:54 AM 35.1 °F 29.3 °F 30.9 °F 85% 30.35 in - NNE 6.9 mph - N/A   Unknown
3:54 AM 35.1 °F 28.6 °F 30.9 °F 85% 30.33 in - NNE 8.1 mph - N/A   Unknown
4:54 AM 35.1 °F 28.6 °F 30.9 °F 85% 30.35 in - NNE 8.1 mph - N/A   Unknown
5:54 AM 35.1 °F 29.3 °F 30.9 °F 85% 30.35 in - NE 6.9 mph - N/A   Unknown
6:54 AM 36.0 °F 29.6 °F 30.9 °F 82% 30.36 in - NE 8.1 mph - N/A   Unknown
7:54 AM 37.0 °F 31.0 °F 30.0 °F 76% 30.38 in - NE 8.1 mph 16.1 mph N/A   Unknown
8:54 AM 37.0 °F 32.4 °F 30.9 °F 79% 30.39 in - NNE 5.8 mph - N/A   Unknown
9:54 AM 37.9 °F 32.7 °F 30.0 °F 73% 30.40 in - NNE 6.9 mph - N/A   Unknown
10:54 AM 37.9 °F 32.1 °F 28.9 °F 70% 30.41 in - NNE 8.1 mph - N/A   Unknown
11:54 AM 39.0 °F 33.4 °F 30.0 °F 70% 30.40 in - ENE 8.1 mph - N/A   Unknown
12:54 PM 41.0 °F 35.8 °F 30.9 °F 67% 30.39 in - East 8.1 mph - N/A   Unknown
1:54 PM 41.0 °F 38.0 °F 30.0 °F 65% 30.38 in - Variable 4.6 mph - N/A   Unknown
3:54 PM 41.0 °F - 30.9 °F 67% 30.37 in - Calm Calm - N/A   Unknown
4:00 PM - - - N/A% - - North - - N/A   Unknown
4:54 PM 39.9 °F 37.8 °F 30.9 °F 70% 30.37 in - Variable 3.5 mph - N/A   Unknown
5:54 PM 39.0 °F 36.8 °F 30.9 °F 73% 30.35 in - Variable 3.5 mph - N/A   Unknown
6:54 PM 37.0 °F - 30.9 °F 79% 30.38 in - Calm Calm - N/A   Unknown
8:54 PM 35.1 °F - 30.0 °F 82% 30.35 in - Calm Calm - N/A   Unknown
9:54 PM 32.0 °F - 30.0 °F 92% 30.36 in - Calm Calm - N/A   Unknown
10:54 PM 34.0 °F - 30.0 °F 85% 30.35 in - Calm Calm - N/A   Unknown
11:54 PM 37.9 °F 34.4 °F 34.0 °F 86% 30.34 in - SSE 4.6 mph - N/A   Unknown
12:54 AM 37.9 °F 33.5 °F 34.0 °F 86% 30.34 in - South 5.8 mph - N/A   Unknown